This is the latest recevied weather packets stored in our database for station/object AF9W-5. If no packets are shown the sender has not sent any weather packets the latest 10 day(s).
| Time | Temp. | Humidity | Pressure | Rain* | Wind** | Luminosity | Snow |
|---|---|---|---|---|---|---|---|
| 1777747412 | 27.78° C | 21% | 1014.8 hPa | 0 mm | - | 1015 W/m² | - |
| 1777747109 | 26.67° C | 19% | 1014.8 hPa | 0 mm | - | 1045 W/m² | - |
| 1777746805 | 27.78° C | 20% | 1014.6 hPa | 0 mm | - | 273 W/m² | - |
| 1777746500 | 27.78° C | 21% | 1014.8 hPa | 0 mm | - | 244 W/m² | - |
| 1777746196 | 27.78° C | 20% | 1014.7 hPa | 0 mm | - | 549 W/m² | - |
| 1777745893 | 27.22° C | 21% | 1015.2 hPa | 0 mm | - | 319 W/m² | - |
| 1777745592 | 28.33° C | 21% | 1015.1 hPa | 0 mm | - | 317 W/m² | - |
| 1777745289 | 28.33° C | 20% | 1015 hPa | 0 mm | - | 916 W/m² | - |
| 1777744986 | 27.78° C | 22% | 1015.3 hPa | 0 mm | - | 865 W/m² | - |
| 1777744682 | 27.78° C | 21% | 1015.1 hPa | 0 mm | - | 839 W/m² | - |
| 1777744376 | 27.78° C | 20% | 1015.3 hPa | 0 mm | - | 816 W/m² | - |
| 1777744073 | 28.33° C | 19% | 1015.3 hPa | 0 mm | - | 801 W/m² | - |
| 1777743770 | 27.78° C | 21% | 1015.5 hPa | 0 mm | - | 788 W/m² | - |
| 1777743467 | 27.78° C | 21% | 1015.3 hPa | 0 mm | - | 777 W/m² | - |
| 1777743164 | 27.78° C | 22% | 1015.3 hPa | 0 mm | - | 766 W/m² | - |
| 1777742862 | 28.33° C | 22% | 1015.4 hPa | 0 mm | - | 753 W/m² | - |
| 1777742558 | 27.78° C | 21% | 1015.3 hPa | 0 mm | - | 745 W/m² | - |
| 1777742254 | 28.33° C | 19% | 1015.6 hPa | 0 mm | - | 734 W/m² | - |
| 1777741952 | 27.78° C | 21% | 1015.3 hPa | 0 mm | - | 723 W/m² | - |
| 1777741648 | 26.67° C | 23% | 1015.1 hPa | 0 mm | - | 711 W/m² | - |
| 1777741345 | 27.22° C | 23% | 1015.2 hPa | 0 mm | - | 701 W/m² | - |
| 1777741042 | 26.67° C | 24% | 1015.4 hPa | 0 mm | - | 688 W/m² | - |
| 1777740739 | 26.67° C | 24% | 1015.2 hPa | 0 mm | - | 676 W/m² | - |
| 1777740435 | 27.22° C | 22% | 1015.2 hPa | 0 mm | - | 663 W/m² | - |
| 1777740133 | 26.67° C | 23% | 1015.3 hPa | 0 mm | - | 651 W/m² | - |
* Rain latest hour (hover to see other rain measurements)
** Current wind speed in m/s (hover to see current wind gust speed)